Terug naar catalogus

CZ-4B DEB

ActiefSSO
NORAD 38312·DEBRIS·🇨🇳 China

Gelanceerd Dec 22, 2011 vanaf Taiyuan Satellite Launch Center

Loading…

Volgende Passages (komende 24 uur)

TLE

VersSource: Space-Track

Epoch: Sep 14, 2026, 03:21 UTC

1 38312U 11079F   26257.14016527  .00001937  00000-0  50345-3 0  9993
2 38312  98.3641 225.1351 0102804 340.7793  77.1320 14.47715517717879

Volg CZ-4B DEB in realtime met AllMySat

Download on the App Store